GW1999 Weather Reports


time (UTC)temp
C
wind
direction
speed
KPH
gust
KPH
rain 1hr
cm
rain 24hr
cm
rain mn
cm
humidity
%
barometer
mb
20260504000025 17 183 3.2 8.0 0.00 0.00 0.00 43 1016.3
20260503234505 18 203 3.2 9.7 0.00 0.00 0.00 41 1016.3
20260503233026 19 218 3.2 11.3 0.00 0.00 0.00 38 1016.2
20260503231600 19 207 8.0 12.9 0.00 0.00 0.00 38 1016.2
20260503231506 19 217 6.4 12.9 0.00 0.00 0.00 38 1016.2
20260503230044 20 228 3.2 12.9 0.00 0.00 0.00 38 1016.2
20260503224516 20 202 1.6 9.7 0.00 0.00 0.00 38 1016.6
20260503223038 20 209 4.8 16.1 0.00 0.00 0.00 40 1016.5
20260503221556 20 224 4.8 11.3 0.00 0.00 0.00 37 1016.5
20260503220037 20 217 1.6 11.3 0.00 0.00 0.00 34 1016.7
20260503214553 20 227 4.8 12.9 0.00 0.00 0.00 35 1016.8
20260503213016 21 167 6.4 16.1 0.00 0.00 0.00 33 1016.8
20260503211553 21 208 1.6 11.3 0.00 0.00 0.00 35 1017.1
20260503210014 21 153 3.2 14.5 0.00 0.00 0.00 36 1017.1
20260503204553 21 193 3.2 12.9 0.00 0.00 0.00 34 1017.1
20260503203018 20 203 6.4 16.1 0.00 0.00 0.00 35 1017.4
20260503201530 21 240 4.8 11.3 0.00 0.00 0.00 32 1017.7
20260503200012 21 34 3.2 16.1 0.00 0.00 0.00 33 1017.9
20260503194532 21 175 3.2 14.5 0.00 0.00 0.00 37 1018.1
20260503193012 20 118 3.2 16.1 0.00 0.00 0.00 35 1018.3
20260503191533 21 165 3.2 12.9 0.00 0.00 0.00 36 1018.6
20260503190033 20 39 3.2 14.5 0.00 0.00 0.00 34 1018.9
20260503184555 20 220 1.6 8.0 0.00 0.00 0.00 36 1019.1
20260503183034 20 256 6.4 17.7 0.00 0.00 0.00 33 1019.1
20260503181542 20 216 3.2 12.9 0.00 0.00 0.00 37 1019.2
20260503180058 20 1 3.2 12.9 0.00 0.00 0.00 36 1019.3
20260503174539 19 359 3.2 11.3 0.00 0.00 0.00 38 1019.4
20260503173101 18 301 3.2 16.1 0.00 0.00 0.00 38 1019.6
20260503171537 19 118 0.0 9.7 0.00 0.00 0.00 39 1020.0
20260503081535 3 26 0.0 0.0 0.00 0.00 0.00 89 1018.3
20260503071537 5 342 0.0 0.0 0.00 0.00 0.00 88 1017.6
20260503070103 5 343 0.0 0.0 0.00 0.00 0.00 88 1017.2
20260503060103 6 356 0.0 0.0 0.00 0.00 0.00 83 1017.2
20260503054521 6 356 0.0 0.0 0.00 0.00 0.00 82 1017.2
20260503053043 6 356 0.0 0.0 0.00 0.00 0.00 82 1017.3
20260503051524 7 347 1.6 3.2 0.00 0.00 0.00 81 1017.3
20260503050051 7 322 0.0 0.0 0.00 0.00 0.00 78 1017.2
20260503044531 8 294 0.0 0.0 0.00 0.00 0.00 77 1016.9
20260503043044 8 307 0.0 0.0 0.00 0.00 0.00 75 1016.8
20260503041529 8 311 0.0 3.2 0.00 0.00 0.00 77 1016.8
20260503040048 9 350 0.0 3.2 0.00 0.00 0.00 75 1016.6
20260503034546 10 303 0.0 3.2 0.00 0.00 0.00 71 1016.5
20260503033134 11 349 0.0 3.2 0.00 0.00 0.00 58 1016.3
20260503031520 12 352 0.0 3.2 0.00 0.00 0.00 53 1016.2
20260503030107 12 359 0.0 4.8 0.00 0.00 0.00 49 1016.0
20260503024518 12 359 1.6 4.8 0.00 0.00 0.00 48 1016.0
20260503023051 12 18 1.6 3.2 0.00 0.00 0.00 50 1016.0
20260503021516 13 346 0.0 0.0 0.00 0.00 0.00 49 1015.8
20260503020056 13 346 0.0 1.6 0.00 0.00 0.00 48 1015.5
20260503014533 14 356 0.0 4.8 0.00 0.00 0.00 48 1015.2
20260503013052 14 360 3.2 9.7 0.00 0.00 0.00 48 1014.9
20260503011516 15 360 3.2 6.4 0.00 0.00 0.00 49 1014.5
20260503010034 15 1 1.6 4.8 0.00 0.00 0.00 54 1014.2
20260503004514 15 24 0.0 3.2 0.00 0.00 0.00 59 1013.7
20260503003038 15 13 0.0 0.0 0.00 0.00 0.00 64 1013.5
20260503001604 15 13 0.0 1.6 0.00 0.00 0.00 65 1013.4
20260503001502 15 13 0.0 1.6 0.00 0.00 0.00 65 1013.5